Regional Weather Roundup
Issued by NWS

Home | Current Version | Previous Version | Graphics & Text | Print | Product List | Glossary On
Versions: 1 2 3 4 5 6 7 8 9 10 11 12 13 14 15 16 17 18 19 20 21 22 23 24 25 26 27 28 29 30 31 32 33 34 35 36 37 38 39 40 41 42 43 44 45 46 47 48 49 50
614
ASUS45 KABQ 110301
RWRNM
NEW MEXICO REGIONAL WEATHER ROUNDUP
NATIONAL WEATHER SERVICE ALBUQUERQUE NM
800 PM MST WED FEB 10 2016

NOTE: "FAIR" MEANS FEW OR NO CLOUDS BELOW 12,000 FEET AGL WITH NO
       SIGNIFICANT WEATHER OR OBSTRUCTIONS TO VISION.

      THIS PRODUCT IS RELEASED AS TWO VERSIONS.  ONE VERSION NEAR
      THE TOP OF THE HOUR CONTAINING PRELIMINARY DATA FROM ALBUQUERQUE
      AND OTHER STATIONS.  A FINAL VERSION WITH ADDITIONAL DATA IS
      ISSUED ABOUT 10 MINUTES AFTER THE HOUR.

NMZ501-503-504-510>518-110400-
NORTHWEST PLATEAU/NORTHCENTRAL MOUNTAINS

CITY           SKY/WX    TMP DP  RH WIND       PRES   REMARKS
FARMINGTON     CLOUDY    41  22  46 W7        30.33S
SANTA FE       CLOUDY    39  19  44 N6        30.30R WCI  35
TAOS           CLOUDY    36  19  51 E8        30.33S WCI  29
ANGEL FIRE     FAIR      38  12  34 S5        30.36F WCI  34

$$
NMZ402-403-502-505>509-110400-
WESTCENTRAL MOUNTAINS/SOUTHWEST MOUNTAINS

CITY           SKY/WX    TMP DP  RH WIND       PRES   REMARKS
GALLUP         MOCLDY    34  23  64 CALM      30.36F
GRANTS         PTCLDY    35  12  38 NW6       30.37S WCI  29
SILVER CITY      N/A     46  16  29 N13       30.31F

$$
NMZ407-409-411-412-110400-
SOUTHERN DESERTS

CITY           SKY/WX    TMP DP  RH WIND       PRES   REMARKS
DEMING         CLEAR     50  19  29 SW6       30.26F
HOLLOMAN AFB   CLOUDY    46  13  26 NE7       30.24S
ALAMOGORDO     CLEAR     50  14  23 NE7       30.25F
T OR C         CLEAR     54  13  19 W5        30.26S

$$
NMZ519>523-110400-
CENTRAL VALLEYS/CENTRAL HIGHLANDS

CITY           SKY/WX    TMP DP  RH WIND       PRES   REMARKS
ALBUQUERQUE    CLOUDY    50  18  28 N9        30.30S
DOUBLE EAGLE   PTCLDY    36  18  48 VRB5      30.32S WCI  32
MORIARTY ARPT  FAIR      44  15  31 NW3       30.31S
CLINES CORNERS CLOUDY    39  20  46 NW17      30.29S WCI  30
BELEN          FAIR      44  15  30 CALM      30.29S
SOCORRO        NOT AVBL

$$
NMZ524>526-539-540-110400-
SOUTHCENTRAL MOUNTAINS

CITY           SKY/WX    TMP DP  RH WIND       PRES   REMARKS
RUIDOSO          N/A     45  10  24 W10       30.33F

$$
NMZ527>531-110400-
NORTHEAST HIGHLANDS/NORTHEAST PLAINS

CITY           SKY/WX    TMP DP  RH WIND       PRES   REMARKS
LAS VEGAS      CLOUDY    44   6  21 NW9       30.26S
RATON          CLOUDY    48   5  17 NW16      30.20S
CLAYTON        CLEAR     55   7  14 NW13      30.13R

$$
NMZ532>537-110400-
EASTCENTRAL PLAINS

CITY           SKY/WX    TMP DP  RH WIND       PRES   REMARKS
TUCUMCARI      CLEAR     50  13  22 W12       30.09S
CANNON AFB     NOT AVBL
CLOVIS AIRPORT CLEAR     54  19  26 W14       30.15S

$$
NMZ028-029-538-110400-
SOUTHEAST PLAINS

CITY           SKY/WX    TMP DP  RH WIND       PRES   REMARKS
ROSWELL        CLEAR     49  19  30 NW5       30.16S
ARTESIA        CLEAR     57  19  23 W18       30.16F
CARLSBAD       CLEAR     53  18  25 W5        30.16F
HOBBS          CLEAR     46  16  29 SW6       30.19S


$$




USA.gov is the U.S. government's official web portal to all federal, state and local government web resources and services.